This is the latest recevied weather packets stored in our database for station/object PY2UTU-WX. If no packets are shown the sender has not sent any weather packets the latest 10 day(s).
| Time | Temp. | Humidity | Pressure | Rain* | Wind** | Luminosity | Snow |
|---|---|---|---|---|---|---|---|
| 1777450341 | 22.78° C | 98% | 921.8 hPa | - | - | - | - |
| 1777449441 | 22.78° C | 98% | 921.8 hPa | - | - | - | - |
| 1777448541 | 23.33° C | 98% | 921.8 hPa | - | - | - | - |
| 1777447641 | 22.78° C | 98% | 921.7 hPa | - | - | - | - |
| 1777446741 | 23.33° C | 98% | 921.8 hPa | - | - | - | - |
| 1777445841 | 22.78° C | 98% | 921.9 hPa | - | - | - | - |
| 1777444941 | 22.78° C | 98% | 922.3 hPa | - | - | - | - |
| 1777444041 | 23.33° C | 98% | 922.2 hPa | - | - | - | - |
| 1777443141 | 23.89° C | 98% | 922.3 hPa | - | - | - | - |
| 1777442241 | 23.89° C | 98% | 922.2 hPa | - | - | - | - |
| 1777441341 | 24.44° C | 98% | 922.3 hPa | - | - | - | - |
| 1777440441 | 23.89° C | 98% | 922.5 hPa | - | - | - | - |
| 1777439541 | 23.89° C | 98% | 922.6 hPa | - | - | - | - |
| 1777438641 | 23.89° C | 98% | 922.8 hPa | - | - | - | - |
| 1777437741 | 23.33° C | 98% | 922.9 hPa | - | - | - | - |
| 1777436841 | 23.33° C | 98% | 922.9 hPa | - | - | - | - |
| 1777435941 | 23.33° C | 98% | 923.3 hPa | - | - | - | - |
| 1777435041 | 23.33° C | 98% | 923.3 hPa | - | - | - | - |
| 1777434141 | 23.33° C | 98% | 923.6 hPa | - | - | - | - |
| 1777433241 | 23.33° C | 98% | 923.6 hPa | - | - | - | - |
| 1777432341 | 22.78° C | 98% | 923.6 hPa | - | - | - | - |
| 1777431441 | 22.22° C | 98% | 923.8 hPa | - | - | - | - |
| 1777430541 | 21.11° C | 98% | 924 hPa | - | - | - | - |
| 1777429641 | 21.67° C | 98% | 924 hPa | - | - | - | - |
| 1777428740 | 20.56° C | 98% | 923.9 hPa | - | - | - | - |
* Rain since midnight (hover to see other rain measurements)
** Current wind speed in m/s (hover to see current wind gust speed)